[[{"header":{"parameterUnit":"m.s-1","parameterCategory":1,"la1":30.2991,"la2":30.254,"lo1":-89.0895,"lo2":-89.0444,"dy":0.0017,"dx":0.0017,"nx":28,"ny":28,"refTime":"2024-06-06T03:00:00:Z","depth":0,"parameterNumber":2,"parameterNumberName":"U-component_of_WINDS"},"data":[0,0,0,0,0,0,0,0,0,0,0,0,0,0,0,0,0,0,0,0,0,0,0,0,0,0,0,0,0,0,0,0,0,0,0,0,0,0,0,0,0,0,0,0,0,0,0,0,0,0,0,0,0,0,0,0,0,0,-1.7206,-1.7206,0,-1.7197,-1.7197,-1.7197,-1.7133,-1.7131,-1.713,-1.7128,-1.7122,-1.7123,-1.7124,0,0,0,0,0,0,0,0,0,0,0,0,0,-1.7169,-1.717,-1.7206,-1.7205,-1.7205,-1.7197,-1.7197,-1.7197,-1.7133,-1.7131,-1.7129,-1.7127,-1.7121,-1.7123,-1.7124,0,0,0,0,0,0,0,0,0,0,0,0,0,-1.7175,-1.717,-1.7206,-1.7173,-1.717,-1.7197,-1.7197,-1.7197,-1.7133,-1.7131,-1.7129,-1.7127,-1.7121,-1.7123,-1.7125,-1.7184,0,0,-1.7131,-1.7131,0,0,0,0,0,0,0,0,-1.7175,-1.7177,-1.7178,-1.7175,-1.7172,-1.7163,-1.7181,-1.7192,-1.7134,-1.7147,-1.7128,-1.7125,-1.7138,-1.7138,-1.7142,-1.7183,-1.7183,-1.7131,-1.7132,-1.7133,-1.7133,0,0,0,0,0,0,0,-1.7175,-1.7177,-1.7202,-1.7178,-1.7174,-1.7159,-1.7157,-1.7183,-1.7156,-1.7146,-1.7141,-1.7141,-1.7136,-1.714,-1.7141,-1.7183,-1.7131,-1.7132,-1.7134,-1.7134,-1.7272,-1.7275,0,0,0,0,0,0,-1.7179,-1.7177,-1.7202,-1.7202,-1.7167,-1.7161,-1.7159,-1.7168,-1.7155,-1.7151,-1.7143,-1.7138,-1.7138,-1.7139,-1.7141,-1.7209,-1.7133,-1.7134,-1.7136,-1.727,-1.7273,-1.7276,0,0,0,0,0,0,-1.7178,-1.7181,-1.7203,-1.7188,-1.719,-1.7164,-1.7175,-1.717,-1.7174,-1.7153,-1.7148,-1.7152,-1.7136,-1.7138,-1.7173,-1.7208,-1.7135,-1.7137,-1.7267,-1.7271,-1.7274,-1.7346,0,0,0,0,0,0,-1.7177,-1.7182,-1.7204,-1.7189,-1.7191,-1.7235,-1.7177,-1.7171,-1.7177,-1.717,-1.7161,-1.7157,-1.7134,-1.7171,-1.7175,-1.7209,-1.7139,-1.7264,-1.7269,-1.7273,-1.734,-1.7351,-1.7361,0,0,0,0,0,-1.7176,-1.7225,-1.7205,-1.7208,-1.7217,-1.7237,-1.7238,-1.7211,-1.718,-1.7202,-1.7189,-1.7157,-1.7203,-1.7175,-1.7179,-1.7214,-1.7261,-1.7267,-1.7273,-1.7336,-1.7349,-1.7361,0,0,0,0,0,0,-1.7245,-1.7222,-1.72,-1.7245,-1.7244,-1.7227,-1.7254,-1.7226,-1.7234,-1.7228,-1.7194,-1.7192,-1.7233,-1.7227,-1.7196,-1.7271,-1.7227,-1.7234,-1.7273,-1.7286,-1.7296,-1.7297,-1.714,0,0,0,0,0,-1.7265,-1.7283,-1.7262,-1.7304,-1.7304,-1.7279,-1.7287,-1.7266,-1.7263,-1.7262,-1.7251,-1.7251,-1.7265,-1.7275,-1.7287,-1.7339,-1.7336,-1.7365,-1.7376,-1.7384,-1.7391,-1.7417,-1.743,-1.7294,-1.7294,-1.7294,0,0,-1.7308,-1.7297,-1.7311,-1.7318,-1.7314,-1.7333,-1.7279,-1.7302,-1.7316,-1.7266,-1.7298,-1.729,-1.7287,-1.7331,-1.735,-1.7328,-1.7427,-1.7391,-1.7398,-1.74,-1.7425,-1.7438,-1.7449,-1.7298,-1.7297,-1.7297,0,0,-1.7395,-1.7389,-1.7423,-1.742,-1.7414,-1.7397,-1.7405,-1.7392,-1.7385,-1.7416,-1.7379,-1.7396,-1.7421,-1.742,-1.7423,-1.7509,-1.748,-1.7514,-1.7568,-1.7595,-1.7606,-1.7615,-1.7646,-1.7657,-1.752,-1.752,-1.752,0,-1.7449,-1.7476,-1.7444,-1.7469,-1.7473,-1.7427,-1.7461,-1.746,-1.746,-1.7464,-1.7438,-1.7469,-1.7463,-1.7506,-1.7527,-1.7531,-1.7539,-1.7515,-1.7607,-1.7616,-1.7624,-1.7653,-1.7664,-1.7524,-1.7524,-1.7523,-1.7523,0,-1.7542,-1.7561,-1.7589,-1.7588,-1.7596,-1.7626,-1.7599,-1.761,-1.7588,-1.7574,-1.7606,-1.7598,-1.7608,-1.7616,-1.7595,-1.7656,-1.7642,-1.7612,-1.7568,-1.7642,-1.7668,-1.7679,-1.753,-1.7529,-1.7528,-1.7526,0,0,-1.7673,-1.7653,-1.7664,-1.7663,-1.7653,-1.7668,-1.7696,-1.7703,-1.7714,-1.7715,-1.7737,-1.7759,-1.7731,-1.7734,-1.7713,-1.7736,-1.7805,-1.7703,-1.7703,-1.7723,-1.7871,-1.7894,-1.7907,-1.7785,-1.7787,-1.7789,-1.7871,0,-1.7757,-1.7802,-1.7774,-1.7824,-1.7841,-1.7797,-1.7821,-1.7818,-1.7806,-1.7819,-1.7805,-1.7821,-1.7783,-1.7784,-1.7805,-1.7792,-1.7834,-1.7786,-1.7807,-1.7808,-1.7809,-1.7921,-1.7945,-1.8024,-1.7882,-1.7883,-1.7885,0,-1.7861,-1.7865,-1.7916,-1.7902,-1.7908,-1.7931,-1.7935,-1.7948,-1.7944,-1.7933,-1.7936,-1.7909,-1.7935,-1.7891,-1.7927,-1.7895,-1.7902,-1.7896,-1.7899,-1.79,-1.7851,-1.7926,-1.8048,-1.806,-1.7901,-1.7899,-1.7898,0,-1.7952,-1.797,-1.8003,-1.8003,-1.7988,-1.8004,-1.7999,-1.7992,-1.7998,-1.8002,-1.8006,-1.8014,-1.8019,-1.8026,-1.8001,-1.7971,-1.8041,-1.7994,-1.8033,-1.8034,-1.805,-1.8049,-1.8175,-1.8054,-1.8054,-1.8054,-1.8053,0,-1.8049,-1.8082,-1.8043,-1.8064,-1.8099,-1.8067,-1.8103,-1.8093,-1.8087,-1.8105,-1.8068,-1.8086,-1.8052,-1.8067,-1.8048,-1.8081,-1.8083,-1.8075,-1.807,-1.8079,-1.808,-1.8083,-1.8077,-1.8057,-1.8056,-1.8056,-1.8055,0,-1.8157,-1.8132,-1.8165,-1.8147,-1.8143,-1.817,-1.8155,-1.8173,-1.8157,-1.8181,-1.8184,-1.816,-1.8175,-1.8151,-1.8164,-1.8151,-1.8197,-1.8183,-1.8198,-1.8194,-1.8234,-1.8231,-1.8367,-1.8383,-1.8251,-1.8253,-1.8254,0,-1.822,-1.8244,-1.8228,-1.8237,-1.8233,-1.8248,-1.8254,-1.8222,-1.823,-1.8226,-1.8245,-1.8257,-1.8265,-1.8291,-1.8275,-1.8284,-1.8271,-1.8318,-1.8272,-1.828,-1.8272,-1.8271,-1.8273,-1.8328,-1.8329,-1.833,-1.8331,0,-1.8336,-1.8322,-1.8331,-1.8336,-1.8344,-1.8347,-1.8347,-1.8357,-1.8323,-1.8334,-1.8348,-1.8354,-1.8366,-1.8379,-1.8384,-1.8379,-1.835,-1.8346,-1.8355,-1.8365,-1.8373,-1.8369,-1.8224,-1.8343,-1.8342,-1.8341,-1.834,-1.834,-1.8423,-1.8442,-1.8434,-1.8445,-1.8442,-1.8443,-1.8459,-1.8444,-1.8455,-1.8462,-1.8443,-1.8462,-1.8456,-1.846,-1.8458,-1.8473,-1.8452,-1.8466,-1.8469,-1.8473,-1.848,-1.837,-1.8474,-1.8473,-1.8473,-1.8473,-1.8472,0,-1.8537,-1.8529,-1.854,-1.854,-1.8549,-1.852,-1.8518,-1.8528,-1.8545,-1.8542,-1.8549,-1.8566,-1.8577,-1.8562,-1.8571,-1.8585,-1.8572,-1.8589,-1.8588,-1.8587,-1.8497,-1.8488,-1.8599,-1.8599,-1.8599,-1.8599,-1.8599,-1.8599,-1.8597,-1.8628,-1.8613,-1.8642,-1.8634,-1.8651,-1.8652,-1.8653,-1.865,-1.867,-1.8678,-1.8668,-1.866,-1.8667,-1.8677,-1.8672,-1.8677,-1.8698,-1.8689,-1.8606,-1.8593,-1.8581,-1.8573,-1.8699,-1.87,-1.8777,-1.8778,-1.8778]},{"header":{"parameterUnit":"m.s-1","parameterCategory":1,"la1":30.2991,"la2":30.254,"lo1":-89.0895,"lo2":-89.0444,"dy":0.0017,"dx":0.0017,"nx":28,"ny":28,"refTime":"2024-06-06T03:00:00:Z","depth":0,"parameterNumber":3,"parameterNumberName":"V-component_of_WINDS"},"data":[0,0,0,0,0,0,0,0,0,0,0,0,0,0,0,0,0,0,0,0,0,0,0,0,0,0,0,0,0,0,0,0,0,0,0,0,0,0,0,0,0,0,0,0,0,0,0,0,0,0,0,0,0,0,0,0,0,0,-0.9898,-0.9898,0,-0.987,-0.987,-0.9869,-0.9828,-0.9827,-0.9826,-0.9826,-0.9798,-0.9798,-0.9798,0,0,0,0,0,0,0,0,0,0,0,0,0,-0.9915,-0.9915,-0.9898,-0.9898,-0.9897,-0.987,-0.987,-0.9869,-0.9828,-0.9827,-0.9826,-0.9825,-0.9798,-0.9798,-0.9798,0,0,0,0,0,0,0,0,0,0,0,0,0,-0.99,-0.9915,-0.9898,-0.9873,-0.9871,-0.987,-0.987,-0.9869,-0.9828,-0.9827,-0.9826,-0.9825,-0.9798,-0.9798,-0.9798,-0.9819,0,0,-0.9797,-0.9797,0,0,0,0,0,0,0,0,-0.9901,-0.9899,-0.9877,-0.9875,-0.9872,-0.9851,-0.9865,-0.9852,-0.9828,-0.9844,-0.9826,-0.9824,-0.9816,-0.9815,-0.9812,-0.9818,-0.9817,-0.9797,-0.9797,-0.9797,-0.9797,0,0,0,0,0,0,0,-0.9902,-0.99,-0.9887,-0.9877,-0.9874,-0.9863,-0.986,-0.9863,-0.9837,-0.9843,-0.984,-0.9837,-0.9815,-0.9812,-0.9811,-0.9816,-0.9797,-0.9797,-0.9797,-0.9797,-0.9837,-0.9838,0,0,0,0,0,0,-0.9906,-0.9901,-0.9888,-0.9886,-0.9884,-0.9864,-0.986,-0.9859,-0.9837,-0.9832,-0.9838,-0.9835,-0.9813,-0.9811,-0.981,-0.9833,-0.9797,-0.9797,-0.9797,-0.9836,-0.9837,-0.9838,0,0,0,0,0,0,-0.9907,-0.9906,-0.9889,-0.9893,-0.989,-0.9865,-0.9864,-0.9859,-0.9856,-0.9833,-0.9828,-0.984,-0.9812,-0.981,-0.9817,-0.9831,-0.9797,-0.9797,-0.9835,-0.9836,-0.9838,-0.9879,0,0,0,0,0,0,-0.9908,-0.9906,-0.9914,-0.9893,-0.989,-0.9896,-0.9865,-0.9859,-0.9856,-0.9852,-0.9834,-0.983,-0.9811,-0.9817,-0.9817,-0.983,-0.9797,-0.9833,-0.9835,-0.9837,-0.9877,-0.9882,-0.9887,0,0,0,0,0,-0.9908,-0.9927,-0.9915,-0.9913,-0.9899,-0.9897,-0.9895,-0.9873,-0.9858,-0.9865,-0.985,-0.983,-0.983,-0.9818,-0.9817,-0.9831,-0.9832,-0.9835,-0.9837,-0.9874,-0.9881,-0.9887,0,0,0,0,0,0,-0.9951,-0.9924,-0.991,-0.9923,-0.9913,-0.989,-0.9899,-0.9882,-0.9876,-0.9873,-0.9846,-0.9842,-0.9852,-0.9842,-0.983,-0.985,-0.9828,-0.983,-0.9856,-0.9863,-0.9868,-0.987,-0.9797,0,0,0,0,0,-0.9962,-0.9963,-0.9939,-0.9953,-0.9948,-0.9925,-0.9923,-0.9907,-0.9895,-0.9891,-0.9876,-0.9866,-0.9864,-0.9863,-0.9859,-0.9875,-0.987,-0.9884,-0.9889,-0.9894,-0.9896,-0.9903,-0.9908,-0.9847,-0.9847,-0.9847,0,0,-0.9985,-0.997,-0.9972,-0.9961,-0.9951,-0.9952,-0.9921,-0.9924,-0.9925,-0.9892,-0.9897,-0.9886,-0.9872,-0.9884,-0.9888,-0.9876,-0.9912,-0.9897,-0.9901,-0.99,-0.9906,-0.9912,-0.9917,-0.9848,-0.9848,-0.9848,0,0,-1.0026,-1.0015,-1.0025,-1.0015,-1.0001,-0.9985,-0.9987,-0.9967,-0.9959,-0.9963,-0.9938,-0.9938,-0.9935,-0.9926,-0.9921,-0.9958,-0.9939,-0.9958,-0.9985,-0.9992,-0.9997,-1.0001,-1.0013,-1.0018,-0.996,-0.996,-0.996,0,-1.0056,-1.0056,-1.0032,-1.0036,-1.0031,-1.0001,-1.001,-1.0002,-0.9987,-0.9985,-0.9972,-0.9966,-0.9955,-0.9963,-0.9972,-0.9969,-0.9971,-0.996,-0.9998,-1.0002,-1.0005,-1.0017,-1.0022,-0.9963,-0.9962,-0.9962,-0.9962,0,-1.0094,-1.0094,-1.0104,-1.0089,-1.0086,-1.0093,-1.0069,-1.0068,-1.0052,-1.0038,-1.0042,-1.0028,-1.0021,-1.0021,-1.0006,-1.0027,-1.002,-1.0003,-0.998,-1.0014,-1.0024,-1.0029,-0.9966,-0.9965,-0.9964,-0.9964,0,0,-1.0162,-1.0133,-1.0137,-1.013,-1.0111,-1.0111,-1.0116,-1.0108,-1.0108,-1.0098,-1.0101,-1.0098,-1.0082,-1.0076,-1.006,-1.0066,-1.0095,-1.0048,-1.0047,-1.0056,-1.0116,-1.0129,-1.0135,-1.0082,-1.0083,-1.0084,-1.0117,0,-1.0199,-1.0206,-1.0183,-1.0196,-1.0196,-1.0166,-1.017,-1.0159,-1.0145,-1.0143,-1.0128,-1.0126,-1.0105,-1.0101,-1.0106,-1.009,-1.0107,-1.0088,-1.0085,-1.0085,-1.0089,-1.014,-1.0154,-1.0187,-1.0121,-1.0122,-1.0123,0,-1.0244,-1.0236,-1.0248,-1.0228,-1.0227,-1.0231,-1.0221,-1.022,-1.0206,-1.0196,-1.0189,-1.0169,-1.0172,-1.015,-1.0153,-1.0141,-1.0138,-1.0131,-1.0131,-1.013,-1.0106,-1.014,-1.0197,-1.0202,-1.0129,-1.0128,-1.0128,0,-1.0292,-1.0284,-1.029,-1.0285,-1.0261,-1.0265,-1.0255,-1.024,-1.0237,-1.0228,-1.0226,-1.0218,-1.0214,-1.0208,-1.0187,-1.0173,-1.0192,-1.0169,-1.0184,-1.0184,-1.0189,-1.0189,-1.0246,-1.0188,-1.0188,-1.0188,-1.0188,0,-1.0336,-1.0344,-1.0311,-1.0315,-1.0323,-1.0297,-1.0306,-1.0294,-1.0281,-1.0281,-1.0255,-1.0256,-1.0228,-1.0226,-1.0209,-1.0214,-1.0212,-1.0204,-1.0199,-1.0206,-1.0207,-1.0204,-1.0201,-1.0189,-1.0189,-1.0189,-1.0188,0,-1.0391,-1.0369,-1.0373,-1.035,-1.0345,-1.0352,-1.0332,-1.0334,-1.0319,-1.0319,-1.0318,-1.0294,-1.029,-1.0267,-1.0259,-1.0247,-1.0258,-1.0249,-1.0262,-1.0259,-1.0275,-1.0274,-1.0332,-1.0338,-1.0277,-1.0277,-1.0278,0,-1.042,-1.0426,-1.0403,-1.0401,-1.0393,-1.039,-1.0386,-1.0361,-1.0357,-1.0342,-1.0346,-1.0339,-1.0333,-1.0328,-1.0309,-1.0302,-1.0292,-1.0313,-1.0291,-1.0297,-1.0292,-1.0292,-1.0292,-1.0318,-1.0318,-1.0319,-1.032,0,-1.0474,-1.0463,-1.0458,-1.0449,-1.0445,-1.0437,-1.0427,-1.0427,-1.0398,-1.0396,-1.0391,-1.0386,-1.0376,-1.037,-1.036,-1.0349,-1.033,-1.0327,-1.0329,-1.0336,-1.0344,-1.0339,-1.0275,-1.0325,-1.0325,-1.0324,-1.0324,-1.0324,-1.0517,-1.052,-1.0505,-1.05,-1.0489,-1.0481,-1.0481,-1.0465,-1.0461,-1.0451,-1.0436,-1.0433,-1.0418,-1.0401,-1.0393,-1.039,-1.0379,-1.0383,-1.0384,-1.0386,-1.0389,-1.0344,-1.0388,-1.0388,-1.0387,-1.0387,-1.0387,0,-1.057,-1.0558,-1.0553,-1.054,-1.0536,-1.0517,-1.0505,-1.0503,-1.0501,-1.0488,-1.0482,-1.0476,-1.047,-1.045,-1.0442,-1.0443,-1.0434,-1.0442,-1.0441,-1.0439,-1.04,-1.0398,-1.045,-1.045,-1.045,-1.045,-1.0449,-1.0449,-1.0597,-1.0601,-1.0588,-1.0586,-1.0574,-1.0571,-1.0565,-1.0557,-1.0547,-1.0541,-1.0536,-1.0523,-1.0507,-1.0497,-1.049,-1.0485,-1.0483,-1.0494,-1.0485,-1.0448,-1.0442,-1.0437,-1.0434,-1.0493,-1.0493,-1.0525,-1.0525,-1.0525]}]]